Location: Red Deer
(52.2681°N, 113.8112°W)
Time: 00:51:05
(UTC-07:00)

BlueWalker 3 - Pass Details

Date: 07 December 2022
Orbit: 499 x 517 km, 53.2° (Epoch: 29 January)

Event Time Altitude Azimuth Distance (km) Brightness Sun altitude
Rises 18:34:02 0° 287° (WNW) 2,631 6.6 -18.8°
Reaches altitude 10° 18:36:16 10° 283° (WNW) 1,738 5.6 -19.2°
Maximum altitude 18:40:06 53° 206° (SSW) 631 2.6 -19.7°
Enters shadow 18:41:33 33° 147° (SSE) 877 2.9 -19.9°
